Location: LDNL
(36.4545°S, 141.6685°E)
Time: 13:22:15
(UTC+10:00)

Courier 1B Rocket - Visible Passes

Search period start: 31 May 2023 00:00
Search period end: 10 June 2023 00:00
Orbit: 920 x 1202 km, 28.2° (Epoch: 30 May)

Date Brightness Start Highest point End Pass type
(mag) Time Alt. Az. Time Alt. Az. Time Alt. Az.
31 May 7.3 03:57:40 17° NE 03:57:40 17° NE 04:00:45 10° ENE visible
31 May 6.3 05:44:05 15° NW 05:49:11 34° NNE 05:55:08 10° ENE visible
01 Jun 6.5 04:47:04 28° N 04:48:09 30° NNE 04:54:01 10° ENE visible
01 Jun 6.1 06:34:36 10° WNW 06:41:10 42° N 06:47:20 10° ENE visible
02 Jun 7.2 03:49:59 19° NE 03:49:59 19° NE 03:52:41 10° ENE visible
02 Jun 6.1 05:36:21 23° NW 05:40:09 40° N 05:46:25 10° ENE visible
03 Jun 6.2 04:39:12 36° NNE 04:39:12 36° NNE 04:45:23 10° ENE visible
03 Jun 6.0 06:25:34 10° WNW 06:32:11 43° N 06:38:28 10° ENE visible
04 Jun 7.3 03:41:59 19° ENE 03:41:59 19° ENE 03:44:14 10° ENE visible
04 Jun 5.9 05:28:22 31° NW 05:31:07 43° N 05:37:36 10° ENE visible
05 Jun 6.2 04:31:07 39° NNE 04:31:07 39° NNE 04:36:38 10° ENE visible
05 Jun 6.0 06:17:29 15° WNW 06:23:10 42° N 06:29:31 10° ENE visible
06 Jun 7.4 03:33:51 17° ENE 03:33:51 17° ENE 03:35:32 10° ENE visible
06 Jun 5.9 05:20:12 37° NW 05:22:05 44° N 05:28:42 10° ENE visible
06 Jun 6.4 07:08:53 10° WNW 07:15:06 32° NNW 07:20:57 10° NE visible
07 Jun 6.3 04:22:54 37° NE 04:22:54 37° NE 04:27:46 10° ENE visible
07 Jun 6.1 06:09:16 18° WNW 06:14:07 38° NNW 06:20:26 10° NE visible
08 Jun 7.6 03:25:35 15° ENE 03:25:35 15° ENE 03:26:43 10° ENE visible
08 Jun 5.9 05:11:57 40° NNW 05:13:02 43° N 05:19:42 10° ENE visible
08 Jun 6.6 07:00:08 10° WNW 07:05:58 26° NNW 07:11:30 10° NNE visible
09 Jun 6.6 04:14:37 33° NE 04:14:37 33° NE 04:18:50 10° ENE visible
09 Jun 6.3 06:00:59 20° WNW 06:05:00 33° NNW 06:11:10 10° NE visible
